Location: ???????
(56.2167°N, 38.0500°E)
Time: 06:39:14
(UTC+00:00)

Cosmos 1371 Rocket - Pass Details

Date: 19 May 2025
Orbit: 750 x 786 km, 74.0° (Epoch: 23 June)

Event Time Altitude Azimuth Distance (km) Brightness Sun altitude
Rises 20:52:52 0° 331° (NNW) 3,289 8.7 -13.5°
Reaches altitude 10° 20:55:17 10° 334° (NNW) 2,359 7.8 -13.6°
Maximum altitude 21:00:39 68° 58° (ENE) 851 4.3 -13.7°
Enters shadow 21:05:17 14° 140° (SE) 2,086 5.8 -13.7°
